Weather observations for the past three days for
Southwest Michigan Regional Airport
Imperial (Metric)
Date Time (edt) Wind (mph) Vis. (mi.) Weather Sky Cond. Temperature (ºF) Relative Humidity Wind Chill (°F) Heat Index (°F) Pressure Precipitation (in)
Air Dwpt 6 hour altimeter (in) sea level (mb) 1 hr 3 hr 6 hr
Max. Min.
17 06:53 Calm 6.00 Fog/Mist FEW070 BKN090 71.1 66.9 87% 29.89 1011.9
17 05:53 Calm 10.00 Fair CLR 71.1 66.9 87% 29.89 1011.5
17 04:53 Calm 7.00 Overcast OVC070 70 66.9 90% 29.87 1010.8
17 03:53 Calm 7.00 Overcast BKN080 OVC110 71.1 66.9 87% 29.86 1010.6
17 02:53 Calm 9.00 A Few Clouds FEW060 72 69.1 91% 29.86 1010.6
17 01:53 Calm 10.00 Fair CLR 73 69.1 75.9 73 87% 29.88 1011.1 0.01
17 00:53 Calm 8.00 A Few Clouds FEW080 73 69.1 87% 29.87 1011.1 0.01
16 23:53 Calm 10.00 Fair CLR 73 69.1 87% 29.85 1010.4
16 22:53 Calm 10.00 Fair CLR 73.9 69.1 85% 29.85 1010.3
16 21:53 E 5 10.00 Partly Cloudy FEW055 SCT070 73.9 69.1 85% 29.84 1009.9
16 20:53 NE 5 10.00 Fair CLR 75 69.1 82% 75 29.83 1009.8
16 19:53 Vrbl 6 10.00 Partly Cloudy SCT034 75.9 70 84 75.9 82% 77 29.83 1009.7
16 18:53 NW 5 10.00 A Few Clouds FEW042 79 69.1 72% 82 29.81 1009.0
16 17:53 NW 6 10.00 Partly Cloudy SCT042 SCT055 82 71.1 69% 86 29.8 1008.7
16 16:53 SW 8 10.00 Overcast BKN034 BKN045 OVC055 82.9 72 70% 88 29.82 1009.4
16 15:53 W 13 10.00 Fair CLR 84 71.1 65% 89 29.83 1009.5
16 14:53 W 14 G 23 10.00 Fair CLR 82.9 71.1 67% 88 29.82 1009.2
16 13:53 W 12 10.00 Fair CLR 80.1 71.1 82 73 74% 84 29.82 1009.5
16 12:53 W 12 10.00 Fair CLR 82 70 67% 86 29.81 1009.0
16 11:53 W 14 10.00 Fair CLR 80.1 70 71% 83 29.82 1009.4
16 10:53 SW 10 10.00 Fair CLR 79 68 69% 81 29.81 1009.0
16 09:53 SW 13 10.00 Fair CLR 78.1 68 71% 80 29.81 1009.0
16 08:53 SW 8 10.00 Fair CLR 75 68 79% 76 29.81 1008.8
16 07:53 SW 8 10.00 Fair CLR 73 68 73 69.1 84% 29.78 1007.9 0.02
16 06:53 SW 8 7.00 Mostly Cloudy BKN006 72 68 87% 29.78 1007.8
16 05:53 SW 8 7.00 Overcast OVC006 72 69.1 91% 29.76 1007.3
16 04:53 W 9 10.00 Mostly Cloudy BKN009 71.1 68 90% 29.76 1007.4 0.02
16 03:53 W 3 10.00 Partly Cloudy SCT007 71.1 68 90% 29.75 1006.9 0.01
16 02:53 W 8 10.00 Partly Cloudy SCT110 70 66 87% 29.73 1006.3 0.01
16 01:53 SW 9 10.00 Overcast OVC100 70 66 84 69.1 87% 29.75 1006.9 0.04 2.19
16 00:53 NE 8 5.00 Heavy Rain Fog/Mist BKN100 BKN120 69.1 64.9 87% 29.69 1004.9 0.41
15 23:53 NE 6 4.00 Thunderstorm Heavy Rain Fog/Mist BKN041 BKN080 OVC100 70 66 87% 29.7 1005.3 0.67
15 21:53 SE 3 10.00 Thunderstorm CLR 82.9 75.9 79% 91 29.7 1005.1
15 20:53 SE 6 10.00 Fair CLR 84 75 74% 92 29.73 1006.0
15 19:53 S 9 10.00 Fair CLR 87.1 75 89.1 82.9 67% 97 29.74 1006.6
15 18:53 S 7 10.00 Fair CLR 89.1 73.9 61% 98 29.76 1007.0
15 17:53 S 6 10.00 Fair CLR 88 72 59% 95 29.78 1007.9
15 16:53 SW 9 10.00 Fair CLR 86 72 63% 92 29.81 1008.8
15 15:53 W 10 10.00 Fair CLR 87.1 72 61% 94 29.84 1010.0
15 14:53 SW 9 10.00 Fair CLR 86 72 63% 92 29.86 1010.4
15 13:53 W 5 10.00 Fair CLR 84 71.1 84 72 65% 89 29.88 1011.2
15 12:53 W 8 10.00 Fair CLR 82 68 63% 85 29.9 1011.8
15 11:53 W 9 10.00 Fair CLR 81 69.1 67% 84 29.89 1011.4
15 10:53 SW 5 10.00 Mostly Cloudy BKN013 77 69.1 77% 79 29.88 1011.3
15 09:53 SW 8 10.00 Fair CLR 75.9 69.1 79% 77 29.87 1011.1
15 08:53 SW 6 10.00 Partly Cloudy SCT007 73 68 84% 29.88 1011.4
15 07:53 W 6 10.00 Mostly Cloudy BKN008 72 68 73.9 71.1 87% 29.88 1011.2 0.28
15 06:53 SW 12 10.00 Mostly Cloudy BKN007 72 68 87% 29.87 1011.0
15 05:53 SW 12 10.00 Overcast OVC006 72 69.1 91% 29.87 1011.1
15 04:53 W 5 5.00 Light Rain Fog/Mist OVC007 72 69.1 91% 29.85 1010.3 0.01 0.28
15 03:53 S 3 10.00 Overcast OVC007 72 69.1 91% 29.84 1009.9 0.02
15 02:53 W 5 4.00 Rain Fog/Mist BKN009 BKN055 OVC110 72 69.1 91% 29.85 1010.4 0.25
15 01:53 W 9 10.00 Light Rain FEW039 BKN110 73.9 68 84 73.9 82% 29.88 1011.2
15 00:53 S 7 10.00 Fair CLR 82 75 79% 89 29.83 1009.6
14 23:53 S 7 10.00 Fair CLR 81 73.9 79% 86 29.85 1010.2
14 22:53 SE 5 10.00 A Few Clouds FEW080 79 73 82% 82 29.86 1010.6
14 21:53 SE 6 10.00 Fair CLR 80.1 73 79% 84 29.87 1010.9
14 20:53 S 8 10.00 Fair CLR 82.9 72 70% 88 29.9 1011.8
14 19:53 Vrbl 3 10.00 Fair CLR 84 73 88 82 70% 90 29.9 1012.1
14 18:53 S 7 10.00 Partly Cloudy SCT100 84.9 70 61% 89 29.91 1012.3
14 17:53 SW 12 10.00 Fair CLR 87.1 71.1 59% 93 29.92 1012.6
14 16:53 W 12 10.00 Fair CLR 87.1 69.1 55% 91 29.94 1013.2
14 15:53 SW 12 G 23 10.00 Fair CLR 87.1 68 53% 91 29.95 1013.7
14 14:53 W 7 G 18 10.00 Fair CLR 84.9 68 57% 88 29.92 1012.7
14 13:53 S 8 10.00 Fair CLR 82 68 82.9 71.1 63% 85 29.93 1013.1
14 12:53 SW 9 10.00 Fair CLR 81 69.1 67% 84 29.92 1012.7
14 11:53 S 10 G 21 10.00 A Few Clouds FEW090 81 70 69% 84 29.9 1012.0
14 10:53 S 15 G 25 10.00 A Few Clouds FEW095 82 72 72% 87 29.95 1013.6
14 09:53 S 8 10.00 Mostly Cloudy BKN030 BKN110 77 69.1 77% 79 30.01 1015.8
14 08:53 S 7 10.00 A Few Clouds FEW032 73 68 84% 30.01 1015.9
14 07:53 SE 6 10.00 Partly Cloudy SCT095 71.1 66.9 71.1 70 87% 30.01 1015.7 0.27
Date Time (edt) Wind (mph) Vis. (mi.) Weather Sky Cond. Air Dwpt Max. Min. Relative Humidity Wind Chill (°F) Heat Index (°F) altimeter (in) sea level (mb) 1 hr 3 hr 6 hr
6 hour
Temperature (ºF) Pressure Precipitation (in)